Flag for Switzerland Weather past 2 weeks in Geneva, Geneva, Switzerland

Now
64 °F

Low clouds.


Feels Like: 64 °F
Forecast: 57 / 76 °F
Wind: 1 mph from Northeast

Location: Geneve-Cointrin

Current Time: Jul 31, 2014 at 12:23:22 AM

Latest Report: Jul 30, 2014 at 11:00 PM


Visibility: 11 mi

Pressure: 29.98 "Hg

Humidity: 95%

Dew point: 62 °F

Location of GenevaLocation

Historic Weather in Geneva — Graph

°F

Geneva temperature yesterday

Maximum temperature yesterday: 64 °F (at 5:00 PM)
Minimum temperature yesterday: 58 °F (at 2:00 AM)
Average temperature yesterday: 61 °F

Past Weeks' High & Low Weather Summary

 TemperatureHumidityPressure
High87 °F (Jul 18, 6:00 PM)96% (Jul 27, 7:00 AM)30.19 "Hg (Jul 27, 7:00 AM)
Low55 °F (Jul 27, 5:00 AM)25% (Jul 18, 6:00 PM)29.79 "Hg (Jul 29, 1:00 PM)
Average67 °F78%29.96 "Hg
* Reported Jul 15 10:00 PM — Jul 30 10:00 PM, Geneva, Weather by CustomWeather, © 2014

Note: Actual official high and low records may vary slightly from our data, if they occured in-between our weather recording intervals... More about our weather records

Advertising

Geneva weather history for previous 24 hours

 ConditionsComfort  
Time TempWeatherWind HumidityBarometerVisibility
10:00 PM
Jul 30
64 °FMild.2 mph95%29.98 "HgN/A
9:00 PM64 °FMild.1 mph94%29.96 "HgN/A
8:00 PM64 °FDrizzle. Low clouds.2 mph91%29.95 "Hg6 mi
7:00 PM64 °FMild.2 mph93%29.94 "HgN/A
6:00 PM64 °FMild.3 mph92%29.94 "HgN/A
5:00 PM64 °FRain. Low clouds.3 mph92%29.93 "Hg2 mi
4:00 PM64 °FMild.2 mph91%29.93 "HgN/A
3:00 PM64 °FMild.3 mph91%29.91 "HgN/A
2:00 PM64 °FLight rain. Overcast.2 mph88%29.91 "Hg2 mi
1:00 PM64 °FMild.5 mph84%29.90 "HgN/A
12:00 PM62 °FMild.5 mph89%29.90 "HgN/A
11:00 AM61 °FSprinkles. Low clouds.1 mph90%29.90 "Hg5 mi
10:00 AM60 °FCool.3 mph91%29.88 "HgN/A
9:00 AM60 °FCool.2 mph91%29.88 "HgN/A
8:00 AM59 °FLow clouds.2 mph91%29.87 "Hg11 mi
7:00 AM59 °FCool.5 mph92%29.86 "HgN/A
6:00 AM59 °FCool.3 mph93%29.87 "HgN/A
5:00 AM59 °FLight rain. Low clouds.5 mph92%29.86 "Hg7 mi
4:00 AM59 °FCool.3 mph92%29.87 "HgN/A
3:00 AM59 °FCool.3 mph92%29.89 "HgN/A
2:00 AM58 °FLow clouds.3 mph92%29.88 "Hg16 mi
1:00 AM59 °FCool.2 mph93%29.88 "HgN/A
12:00 AM59 °FCool.2 mph94%29.89 "HgN/A
Weather by CustomWeather, © 2014

See weather overviewHow to use our weather pages